Weather History for Grand Marais Airport, MN

Change the Weather History Date:

Sunday, September 15, 2013

  Actual Average Record
Temperature  
Mean Temperature 42 °F -  
Max Temperature 53 °F 61 °F 71 °F (2006)
Min Temperature 32 °F 43 °F 8 °F (1999)
Degree Days  
Heating Degree Days 22    
Moisture  
Dew Point 39 °F    
Average Humidity 77    
Maximum Humidity 93    
Minimum Humidity 47    
Precipitation  
Precipitation 0.35 in - - ()
Sea Level Pressure  
Sea Level Pressure 30.16 in    
Wind  
Wind Speed 8 mph (NNW)    
Max Wind Speed 16 mph    
Max Gust Speed 23 mph    
Visibility 9 miles    
Events Rain    
Averages and records for this station are not official NWS values.
T = Trace of Precipitation, MM = Missing Value Source: NWS Daily Summary

Daily Weather History Graph

Daily Weather History Graph

Search for Another Location

Airport:

Trip Planner

Search our weather history database for the weather conditions in past years. The results will help you decide how hot, cold, wet, or windy it might be!

Date:

Astronomy

Sep. 15, 2013 Rise Set
Actual Time 6:39 AM CDT 7:13 PM CDT
Civil Twilight 6:07 AM CDT 7:44 PM CDT
Nautical Twilight 5:30 AM CDT 8:21 PM CDT
Astronomical Twilight 4:52 AM CDT 8:59 PM CDT
Moon 4:53 PM CDT 2:02 AM CDT
Length of Visible Light 13h 36m
Length of Day
12h 34m
Waxing Gibbous, 82% of the Moon is Illuminated
Sep 15
Waxing Gibbous
Sep 19
Full
Sep 26
Last Quarter
Oct 4
New
Oct 11
First Quarter

Hourly Weather History & Observations

Time (CDT) Temp. Windchill Dew Point Humidity Pressure Visibility Wind Dir Wind Speed Gust Speed Precip Events Conditions
12:13 AM 53.6 °F - 50.0 °F 88% 29.94 in 10.0 mi WSW 9.2 mph 18.4 mph 0.01 in Rain Light Rain
12:34 AM 53.6 °F - 50.0 °F 88% 29.95 in 10.0 mi WSW 5.8 mph 17.3 mph 0.02 in Rain Light Rain
12:54 AM 53.6 °F - 48.2 °F 82% 29.96 in 10.0 mi WSW 5.8 mph - 0.03 in Rain Rain
1:13 AM 51.8 °F - 48.2 °F 88% 29.96 in 10.0 mi West 5.8 mph - 0.01 in   Light Drizzle
1:33 AM 51.8 °F - 48.2 °F 88% 29.96 in 7.0 mi West 5.8 mph - 0.05 in Rain Rain
1:54 AM 51.8 °F - 48.2 °F 88% 29.97 in 5.0 mi West 3.5 mph - 0.11 in Rain Heavy Rain
2:14 AM 51.8 °F - 48.2 °F 88% 29.97 in 7.0 mi Calm Calm - 0.03 in Rain Rain
2:34 AM 51.8 °F - 48.2 °F 88% 29.97 in 10.0 mi West 4.6 mph - 0.04 in Rain Light Rain
2:53 AM 51.8 °F - 48.2 °F 88% 29.96 in 7.0 mi West 4.6 mph - 0.06 in   Drizzle
3:13 AM 51.8 °F - 48.2 °F 88% 29.97 in 7.0 mi NNW 3.5 mph - 0.03 in Rain Rain
3:34 AM 51.8 °F - 48.2 °F 88% 29.98 in 7.0 mi NNE 9.2 mph - 0.07 in Rain Light Rain
3:54 AM 51.8 °F - 48.2 °F 88% 29.99 in 4.0 mi NNE 12.7 mph - 0.07 in   Drizzle
4:13 AM 50.0 °F - 46.4 °F 87% 30.00 in 4.0 mi North 11.5 mph 17.3 mph 0.01 in Rain Rain
4:34 AM 48.2 °F - 44.6 °F 87% 30.00 in 3.0 mi North 11.5 mph 19.6 mph 0.03 in   Drizzle
4:54 AM 48.2 °F - 44.6 °F 87% 30.01 in 2.5 mi NNE 16.1 mph - 0.05 in Rain Rain
5:13 AM 46.4 °F 40.1 °F 44.6 °F 93% 30.02 in 4.0 mi North 15.0 mph 23.0 mph 0.02 in Rain Light Rain
5:34 AM 46.4 °F 41.1 °F 42.8 °F 87% 30.02 in 5.0 mi North 11.5 mph 21.9 mph 0.02 in   Drizzle
5:54 AM 44.6 °F 37.4 °F 41.0 °F 87% 30.03 in 10.0 mi North 16.1 mph 20.7 mph 0.02 in   Overcast
6:13 AM 44.6 °F 38.4 °F 41.0 °F 87% 30.04 in 10.0 mi North 12.7 mph 20.7 mph N/A   Overcast
6:33 AM 44.6 °F 38.8 °F 41.0 °F 87% 30.05 in 7.0 mi North 11.5 mph - N/A   Overcast
6:54 AM 44.6 °F 38.4 °F 41.0 °F 87% 30.06 in 7.0 mi North 12.7 mph 17.3 mph N/A   Overcast
7:13 AM 44.6 °F 39.7 °F 41.0 °F 87% 30.07 in 2.5 mi North 9.2 mph - N/A Rain Light Rain
7:33 AM 42.8 °F 35.8 °F 39.2 °F 87% 30.08 in 7.0 mi North 13.8 mph 20.7 mph N/A   Overcast
7:53 AM 42.8 °F 36.6 °F 39.2 °F 87% 30.09 in 10.0 mi North 11.5 mph 21.9 mph 0.01 in   Overcast
8:13 AM 42.8 °F 36.2 °F 39.2 °F 87% 30.10 in 10.0 mi North 12.7 mph 21.9 mph N/A   Overcast
8:34 AM 42.8 °F 36.2 °F 39.2 °F 87% 30.11 in 10.0 mi North 12.7 mph - N/A   Overcast
8:53 AM 42.8 °F 37.0 °F 39.2 °F 87% 30.12 in 1.8 mi North 10.4 mph - N/A   Overcast
9:14 AM 42.8 °F 35.4 °F 39.2 °F 87% 30.13 in 4.0 mi NNW 15.0 mph 19.6 mph N/A   Overcast
9:33 AM 44.6 °F 37.8 °F 39.2 °F 81% 30.14 in 10.0 mi North 15.0 mph 20.7 mph N/A   Overcast
9:53 AM 42.8 °F 36.2 °F 39.2 °F 87% 30.15 in 5.0 mi NNW 12.7 mph 18.4 mph N/A   Overcast
10:14 AM 44.6 °F 38.8 °F 37.4 °F 76% 30.16 in 10.0 mi North 11.5 mph 17.3 mph N/A   Overcast
10:33 AM 46.4 °F 40.7 °F 39.2 °F 76% 30.16 in 7.0 mi North 12.7 mph 19.6 mph N/A   Overcast
10:54 AM 44.6 °F 38.8 °F 37.4 °F 76% 30.17 in 10.0 mi North 11.5 mph 18.4 mph N/A   Mostly Cloudy
11:13 AM 46.4 °F 41.1 °F 37.4 °F 71% 30.18 in 10.0 mi North 11.5 mph 17.3 mph N/A   Mostly Cloudy
11:33 AM 44.6 °F 38.8 °F 39.2 °F 81% 30.19 in 5.0 mi North 11.5 mph 17.3 mph N/A   Haze
11:54 AM 48.2 °F - 39.2 °F 71% 30.19 in 10.0 mi North 11.5 mph - N/A   Overcast
12:13 PM 46.4 °F 41.1 °F 37.4 °F 71% 30.20 in 10.0 mi NNW 11.5 mph 16.1 mph N/A   Overcast
12:33 PM 48.2 °F - 37.4 °F 66% 30.20 in 10.0 mi NNW 11.5 mph 17.3 mph N/A   Mostly Cloudy
12:53 PM 48.2 °F - 37.4 °F 66% 30.20 in 10.0 mi NNW 10.4 mph 16.1 mph N/A   Mostly Cloudy
1:14 PM 50.0 °F - 37.4 °F 62% 30.20 in 10.0 mi North 8.1 mph - N/A   Scattered Clouds
1:34 PM 51.8 °F - 37.4 °F 58% 30.21 in 10.0 mi NNW 11.5 mph 16.1 mph N/A   Scattered Clouds
1:54 PM 51.8 °F - 37.4 °F 58% 30.21 in 10.0 mi NNW 6.9 mph - N/A   Mostly Cloudy
2:14 PM 51.8 °F - 37.4 °F 58% 30.22 in 10.0 mi NW 5.8 mph - N/A   Scattered Clouds
2:33 PM 51.8 °F - 37.4 °F 58% 30.23 in 10.0 mi NW 5.8 mph - N/A   Clear
2:54 PM 53.6 °F - 37.4 °F 54% 30.23 in 10.0 mi WNW 5.8 mph - N/A   Scattered Clouds
3:13 PM 53.6 °F - 35.6 °F 51% 30.23 in 10.0 mi NW 9.2 mph - N/A   Scattered Clouds
3:33 PM 53.6 °F - 35.6 °F 51% 30.23 in 10.0 mi NW 6.9 mph - N/A   Clear
3:54 PM 53.6 °F - 37.4 °F 54% 30.23 in 10.0 mi NW 6.9 mph - N/A   Clear
4:13 PM 53.6 °F - 33.8 °F 47% 30.24 in 10.0 mi North 8.1 mph - N/A   Clear
4:33 PM 53.6 °F - 33.8 °F 47% 30.24 in 10.0 mi NNW 6.9 mph - N/A   Clear
4:54 PM 53.6 °F - 33.8 °F 47% 30.25 in 10.0 mi NNW 8.1 mph - N/A   Clear
5:13 PM 53.6 °F - 33.8 °F 47% 30.24 in 10.0 mi NNW 3.5 mph - N/A   Clear
5:33 PM 53.6 °F - 33.8 °F 47% 30.25 in 10.0 mi NNW 4.6 mph - N/A   Clear
5:53 PM 51.8 °F - 32.0 °F 47% 30.26 in 10.0 mi NW 8.1 mph - N/A   Clear
6:13 PM 51.8 °F - 33.8 °F 50% 30.26 in 10.0 mi NNW 3.5 mph - N/A   Clear
6:33 PM 48.2 °F - 35.6 °F 62% 30.26 in 10.0 mi NNW 3.5 mph - N/A   Clear
6:54 PM 46.4 °F 45.2 °F 35.6 °F 66% 30.27 in 10.0 mi NNW 3.5 mph - N/A   Clear
7:13 PM 44.6 °F - 35.6 °F 71% 30.28 in 10.0 mi Calm Calm - N/A   Clear
7:34 PM 42.8 °F - 35.6 °F 76% 30.29 in 10.0 mi Calm Calm - N/A   Clear
7:53 PM 41.0 °F - 35.6 °F 81% 30.29 in 10.0 mi Calm Calm - N/A   Clear
8:13 PM 39.2 °F - 35.6 °F 87% 30.29 in 10.0 mi Calm Calm - N/A   Clear
8:34 PM 37.4 °F - 33.8 °F 87% 30.29 in 10.0 mi Calm Calm - N/A   Clear
8:54 PM 37.4 °F - 33.8 °F 87% 30.30 in 10.0 mi Calm Calm - N/A   Clear
9:13 PM 35.6 °F 32.8 °F 33.8 °F 93% 30.30 in 10.0 mi NW 3.5 mph - N/A   Clear
9:33 PM 35.6 °F 32.8 °F 32.0 °F 87% 30.31 in 10.0 mi NNW 3.5 mph - N/A   Clear
9:53 PM 35.6 °F 32.8 °F 32.0 °F 87% 30.31 in 10.0 mi NNW 3.5 mph - N/A   Clear
10:13 PM 33.8 °F 28.6 °F 30.2 °F 87% 30.31 in 10.0 mi NNW 5.8 mph - N/A   Clear
10:34 PM 32.0 °F 27.5 °F 28.4 °F 87% 30.32 in 10.0 mi NNW 4.6 mph - N/A   Clear
10:53 PM 33.8 °F 28.6 °F 30.2 °F 87% 30.32 in 10.0 mi NNW 5.8 mph - N/A   Clear
11:13 PM 33.8 °F 29.6 °F 30.2 °F 87% 30.32 in 10.0 mi NNW 4.6 mph - N/A   Clear
11:33 PM 32.0 °F 27.5 °F 28.4 °F 87% 30.33 in 10.0 mi NNW 4.6 mph - N/A   Clear
11:53 PM 33.8 °F 29.6 °F 30.2 °F 87% 30.33 in 10.0 mi NNW 4.6 mph - N/A   Clear